Overview Statistics Trail Chart Weather Telemetry Raw packets
 

This is the latest recevied weather packets stored in our database for station/object WS4FSC-7. If no packets are shown the sender has not sent any weather packets the latest 10 day(s).

<< 65 66 67 68 69 70 71 >>
Time Temp. Humidity Pressure Rain* Wind** Luminosity Snow
1787942690 33.33° C 64% 1015 hPa - - 825 W/m² -
1787942510 33.33° C 64% 1016 hPa - - 830 W/m² -
1787941972 33.33° C 64% 1016 hPa - - 844 W/m² -
1787941792 33.33° C 63% 1016 hPa - - 846 W/m² -
1787941611 33.33° C 63% 1016 hPa - - 851 W/m² -
1787941431 33.33° C 64% 1016 hPa - - 856 W/m² -
1787941071 33.33° C 62% 1016 hPa - - 866 W/m² -
1787940531 33.33° C 61% 1016 hPa - - 873 W/m² -
1787940354 33.33° C 65% 1016 hPa - - 875 W/m² -
1787940171 33.33° C 62% 1016 hPa - - 879 W/m² -
1787939811 33.33° C 63% 1016 hPa - - 884 W/m² -
1787939630 33.33° C 66% 1016 hPa - - 887 W/m² -
1787939450 32.78° C 64% 1016 hPa - - 887 W/m² -
1787939313 33.33° C 65% 1016 hPa - - 887 W/m² -
1787939313 32.78° C 64% 1016 hPa - - 888 W/m² -
1787939313 32.78° C 64% 1016 hPa - - 890 W/m² -
1787939313 33.33° C 64% 1016 hPa - - 890 W/m² -
1787939270 32.78° C 64% 1016 hPa - - 888 W/m² -
1787939090 32.78° C 64% 1016 hPa - - 890 W/m² -
1787938911 33.33° C 64% 1016 hPa - - 890 W/m² -
1787938731 33.33° C 65% 1016 hPa - - 887 W/m² -
1787938191 33.33° C 64% 1016 hPa - - 920 W/m² -
1787938011 33.33° C 65% 1016 hPa - - 888 W/m² -
1787937651 33.33° C 65% 1016 hPa - - 885 W/m² -
1787937471 32.78° C 65% 1016 hPa - - 885 W/m² -

* Rain since midnight (hover to see other rain measurements)
** Current wind speed in m/s (hover to see current wind gust speed)